Regional Weather Roundup
Issued by NWS

Home | Current Version | Previous Version | Graphics & Text | Print | Product List | Glossary On
Versions: 1 2 3 4 5 6 7 8 9 10 11 12 13 14 15 16 17 18 19 20 21 22 23 24 25 26 27 28 29 30 31 32 33 34 35 36 37 38 39 40 41 42 43 44 45 46 47 48 49 50
000
ASUS45 KTFX 230610
RWRMT
MONTANA REGIONAL WEATHER ROUNDUP
NATIONAL WEATHER SERVICE GREAT FALLS MT
1200 AM MDT SAT MAY 23 2015

NOTE: "FAIR" INDICATES FEW OR NO CLOUDS BELOW 12000 FEET WITH NO
SIGNIFICANT WEATHER AND/OR OBSTRUCTIONS TO VISIBILITY.

MTZ001>007-043-230700-
WEST OF THE DIVIDE

CITY           SKY/WX    TMP DP  RH WIND       PRES   REMARKS
KALISPELL      PTCLDY    53  36  52 N9        29.92S
MISSOULA       CLOUDY    65  34  31 SE10      29.92R
BUTTE          MOCLDY    48  41  76 CALM      29.99S
MULLAN PASS    CLOUDY    54  30  40 VRB3      30.02R
DEER LODGE       N/A     48  39  71 NW5       30.01R
EUREKA           N/A     57  34  41 N5        29.97R
HAMILTON         N/A     54  46  76 S2        29.93S
LIBBY            N/A     57  39  51 SE5       29.94R
RONAN            N/A     67  37  33 E1        29.96R
THOMPSON FALLS   N/A     54  41  61 CALM      29.94R
$$

MTZ008-052>055-230700-
SOUTHWEST MONTANA

CITY           SKY/WX    TMP DP  RH WIND       PRES   REMARKS
BOZEMAN        CLOUDY    48  43  82 E3        29.96R
DILLON         PTCLDY    49  42  77 E8        29.95S
W YELLOWSTONE  CLOUDY    46  39  76 CALM      29.98F
THREE FORKS      N/A     48  48 100 CALM      29.95S
$$

MTZ009-010-012-014-046-048-049-054-230700-
EAST SLOPES AND CENTRAL MONTANA

CITY           SKY/WX    TMP DP  RH WIND       PRES   REMARKS
CUT BANK       CLEAR     53  34  48 NE8       30.01R
GREAT FALLS    MOCLDY    55  41  59 NE18G24   29.98R
MALMSTROM AFB  LGT RAIN  52  46  82 E10       30.00R
HELENA         PTCLDY    54  42  64 SW8       29.94S
CONRAD           N/A     56  44  64 NE3       30.02R
$$

MTZ011-013-016-021-045-047-050-051-230700-
NORTH CENTRAL MONTANA

CITY           SKY/WX    TMP DP  RH WIND       PRES   REMARKS
HAVRE          MOCLDY    57  47  69 E9        29.97R
LEWISTOWN      CLOUDY    52  47  83 SE6       29.99S
N BAR RANCH    DRIZZLE   50  48  93 CALM      30.02S
CHINOOK          N/A     59  46  63 E5        29.98S
FORT BENTON      N/A     55  46  71 S5        29.99S
$$

MTZ017>020-022>027-061-062-230700-
NORTHEAST MONTANA

CITY           SKY/WX    TMP DP  RH WIND       PRES   REMARKS
GLASGOW        MOCLDY    59  41  51 E10       30.00R
JORDAN           N/A     59  47  64 E5        29.99R
SIDNEY         PTCLDY    54  36  50 CALM      30.07R
WOLF POINT     PTCLDY    62  41  46 SE6       30.02R
MALTA            N/A     56  45  66 CALM      29.95S
PLENTYWOOD       N/A     57  37  47 SE9       30.07R
POPLAR           N/A     55  39  54 E5        30.05R
SCOBEY           N/A     53  30  41 E9        30.04R
$$

MTZ028>42-056>058-230700-
SOUTHCENTRAL AND SOUTHEAST MONTANA

CITY           SKY/WX    TMP DP  RH WIND       PRES   REMARKS
BAKER          PTCLDY    51  39  63 SE15      30.06S
BILLINGS       MOCLDY    53  45  74 NE5       29.95S
LIVINGSTON     CLOUDY    51  47  86 E8        29.97R
MILES CITY     MOCLDY    58  41  53 SE13      29.99S
BIG TIMBER       N/A     50  48  93 NW3       29.98F
EKALAKA          N/A     46  37  70 SE8       30.03S
FORSYTH          N/A     55  43  62 SE5       29.97S
LAUREL           N/A     54  43  66 N2        29.93F
ROUNDUP          N/A     56  42  59 CALM      29.90R
$$

REGIONAL REPORTS...DAKOTAS

CITY           SKY/WX    TMP DP  RH WIND       PRES   REMARKS
WILLISTON      PTCLDY    59  37  44 SE7       30.08R
MINOT          MOCLDY    58  41  53 SE3       30.09R
DICKINSON      PTCLDY    46  35  65 S10       30.08S
BEACH          FAIR      46  37  71 SE9       30.08S
CROSBY         FAIR      57  37  47 S9        30.09R
WATFORD CITY   FAIR      55  34  44 S6        30.07S
BISMARCK       PTCLDY    53  41  63 CALM      30.12S
GRAND FORKS    CLEAR     56  42  59 S6        30.12R
FARGO          CLEAR     60  39  45 SE8       30.13S
BUFFALO SD       N/A     46  39  76 SE12      30.01S
RAPID CITY     CLOUDY    48  43  82 SE9       30.08S
$$

REGIONAL REPORTS...WYOMING/IDAHO/WASHINGTON

CITY           SKY/WX    TMP DP  RH WIND       PRES   REMARKS
GILLETTE       CLOUDY    47  42  83 SE12      30.01F
SHERIDAN       MOCLDY    50  44  80 SE13      29.96R
BUFFALO WY     CLOUDY    46  44  93 S9        30.01F
CODY           CLOUDY    48  48 100 CALM      29.96S
YELLOWSTONE LA   N/A     39  37  92 CALM      30.03S
IDAHO FALLS    LGT RAIN  51  47  86 E14       29.93R
SALMON         CLOUDY    54  46  76 S5        29.93S
BOISE          MOCLDY    60  51  72 SW5       29.86S
SPOKANE        LGT RAIN  62  48  60 W9        29.88R
$$

REGIONAL REPORTS...ALBERTA

CITY           SKY/WX    TMP DP  RH WIND       PRES   REMARKS
EDMONTON       CLEAR     55  30  38 NE5       30.02R
CALGARY        CLEAR     54  28  37 N5        30.06R
LETHBRIDGE     CLEAR     46  34  61 SE8       30.01R
MEDICINE HAT   CLEAR     54  36  50 CALM      30.01R
$$

REGIONAL REPORTS...SASKATCHEWAN

CITY           SKY/WX    TMP DP  RH WIND       PRES   REMARKS
SWIFT CURRENT  MOCLDY    54  34  47 SE7       30.05R
REGINA         PTCLDY    55  36  47 SE8       30.07S
SASKATOON      CLEAR     55  36  47 SW6       30.05R
$$


USA.gov is the U.S. government's official web portal to all federal, state and local government web resources and services.